Retour au catalogue

GORIZONT 13

ActifCommunicationsGEO
NORAD 17083·PAYLOAD·🇷🇺 Russia

Lancé Nov 18, 1986 depuis Baikonur Cosmodrome

Loading…

TLE

FraisSource: Space-Track

Époque: Sep 14, 2026, 12:44 UTC

1 17083U 86090A   26257.53082867 -.00000172  00000-0  00000-0 0  9994
2 17083  12.1346 328.2698 0015570 359.8669   5.7130  0.96727508119517

Suivez GORIZONT 13 en temps réel avec AllMySat

Download on the App Store